H1 CPF 2 NER 2024 1 14 9 014 01 glonass146 H2 2216101 9146 54377 2024 1 14 0 0 0 2024 1 17 23 45 0 900 1 1 0 0 0 1 H9 10 0 60323 0.00000 0 10508022.276 -22622801.334 -5257624.136 10 0 60323 900.00000 0 10120801.482 -21864232.852 -8330665.999 10 0 60323 1800.00000 0 9704898.558 -20720875.156 -11241579.817 10 0 60323 2700.00000 0 9316095.561 -19210038.213 -13933742.945 10 0 60323 3600.00000 0 9006659.146 -17361720.915 -16354814.577 10 0 60323 4500.00000 0 8822949.074 -15217527.381 -18457756.181 10 0 60323 5400.00000 0 8803290.951 -12829109.809 -20201745.524 10 0 60323 6300.00000 0 8976203.557 -10256203.229 -21552966.623 10 0 60323 7200.00000 0 9359055.723 -7564334.574 -22485260.719 10 0 60323 8100.00000 0 9957209.276 -4822301.724 -22980626.363 10 0 60323 9000.00000 0 10763683.947 -2099527.431 -23029559.729 10 0 60323 9900.00000 0 11759357.995 536602.136 -22631229.500 10 0 60323 10800.00000 0 12913695.826 3023304.278 -21793483.755 10 0 60323 11700.00000 0 14185971.868 5304766.498 -20532689.470 10 0 60323 12600.00000 0 15526939.208 7334215.971 -18873408.257 10 0 60323 13500.00000 0 16880873.068 9075607.341 -16847914.956 10 0 60323 14400.00000 0 18187903.602 10504860.289 -14495568.517 10 0 60323 15300.00000 0 19386540.411 11610597.136 -11862047.325 10 0 60323 16200.00000 0 20416283.241 12394351.485 -8998463.624 10 0 60323 17100.00000 0 21220209.650 12870240.878 -5960373.922 10 0 60323 18000.00000 0 21747431.317 13064118.700 -2806704.362 10 0 60323 18900.00000 0 21955316.106 13012242.188 401388.401 10 0 60323 19800.00000 0 21811382.645 12759513.528 3601698.988 10 0 60323 20700.00000 0 21294787.815 12357368.783 6732174.989 10 0 60323 21600.00000 0 20397344.421 11861403.994 9732115.525 10 0 60323 22500.00000 0 19124025.897 11328838.728 12543343.658 10 0 60323 23400.00000 0 17492936.187 10815924.040 15111330.174 10 0 60323 24300.00000 0 15534745.192 10375404.067 17386247.284 10 0 60323 25200.00000 0 13291612.289 10054138.124 19323932.174 10 0 60323 26100.00000 0 10815641.676 9890983.488 20886742.110 10 0 60323 27000.00000 0 8166932.654 9915028.085 22044284.835 10 0 60323 27900.00000 0 5411304.626 10144247.790 22774010.424 10 0 60323 28800.00000 0 2617790.192 10584645.343 23061653.165 10 0 60323 29700.00000 0 -144000.768 11229907.884 22901514.862 10 0 60323 30600.00000 0 -2806537.613 12061598.561 22296583.717 10 0 60323 31500.00000 0 -5306936.618 13049875.322 21258485.931 10 0 60323 32400.00000 0 -7589333.819 14154708.009 19807270.186 10 0 60323 33300.00000 0 -9606964.885 15327543.794 17971028.253 10 0 60323 34200.00000 0 -11323865.713 16513352.004 15785358.115 10 0 60323 35100.00000 0 -12716123.052 17652963.059 13292679.119 10 0 60323 36000.00000 0 -13772623.130 18685603.433 10541411.650 10 0 60323 36900.00000 0 -14495267.137 19551519.801 7585036.842 10 0 60323 37800.00000 0 -14898644.927 20194581.263 4481054.407 10 0 60323 38700.00000 0 -15009181.205 20564749.037 1289859.076 10 0 60323 39600.00000 0 -14863790.975 20620308.285 -1926441.889 10 0 60323 40500.00000 0 -14508101.960 20329766.620 -5105246.227 10 0 60323 41400.00000 0 -13994320.322 19673337.907 -8184684.528 10 0 60323 42300.00000 0 -13378831.206 18643947.605 -11104833.306 10 0 60323 43200.00000 0 -12719636.948 17247716.352 -13808888.641 10 0 60323 44100.00000 0 -12073742.532 15503900.722 -16244276.688 10 0 60323 45000.00000 0 -11494599.926 13444293.235 -18363678.827 10 0 60323 45900.00000 0 -11029720.039 11112106.598 -20125951.293 10 0 60323 46800.00000 0 -10718553.597 8560388.866 -21496921.529 10 0 60323 47700.00000 0 -10590730.432 5850035.841 -22450046.202 10 0 60323 48600.00000 0 -10664731.184 3047483.642 -22966918.819 10 0 60323 49500.00000 0 -10947046.897 222177.451 -23037617.940 10 0 60323 50400.00000 0 -11431861.273 -2556078.540 -22660890.124 10 0 60323 51300.00000 0 -12101268.292 -5219780.434 -21844164.952 10 0 60323 52200.00000 0 -12926015.448 -7706283.579 -20603402.537 10 0 60323 53100.00000 0 -13866740.904 -9960155.984 -18962777.044 10 0 60323 54000.00000 0 -14875652.248 -11935229.790 -16954202.680 10 0 60323 54900.00000 0 -15898576.237 -13596267.049 -14616711.465 10 0 60323 55800.00000 0 -16877293.379 -14920172.084 -11995694.794 10 0 60323 56700.00000 0 -17752059.426 -15896701.602 -9142023.344 10 0 60323 57600.00000 0 -18464207.966 -16528644.509 -6111062.103 10 0 60323 58500.00000 0 -18958724.921 -16831465.433 -2961599.397 10 0 60323 59400.00000 0 -19186686.811 -16832428.193 245289.610 10 0 60323 60300.00000 0 -19107460.338 -16569237.078 3447423.137 10 0 60323 61200.00000 0 -18690570.669 -16088253.868 6582714.040 10 0 60323 62100.00000 0 -17917159.632 -15442366.096 9590369.018 10 0 60323 63000.00000 0 -16780972.054 -14688596.608 12412062.773 10 0 60323 63900.00000 0 -15288828.134 -13885555.117 14993064.586 10 0 60323 64800.00000 0 -13460561.091 -13090838.972 17283295.815 10 0 60323 65700.00000 0 -11328421.496 -12358492.368 19238298.190 10 0 60323 66600.00000 0 -8935971.841 -11736630.706 20820094.504 10 0 60323 67500.00000 0 -6336515.983 -11265329.875 21997925.363 10 0 60323 68400.00000 0 -3591127.282 -10974869.148 22748848.037 10 0 60323 69300.00000 0 -766356.005 -10884401.696 23058185.863 10 0 60323 70200.00000 0 2068290.247 -11001108.935 22919819.453 10 0 60323 71100.00000 0 4842989.708 -11319874.813 22336313.735 10 0 60323 72000.00000 0 7490264.555 -11823494.517 21318877.787 10 0 60323 72900.00000 0 9947544.376 -12483409.722 19887157.487 10 0 60323 73800.00000 0 12159529.060 -13260940.425 18068864.050 10 0 60323 74700.00000 0 14080253.099 -14108962.387 15899244.696 10 0 60323 75600.00000 0 15674765.450 -14973960.238 13420404.761 10 0 60323 76500.00000 0 16920354.921 -15798370.079 10680493.663 10 0 60323 77400.00000 0 17807269.825 -16523112.805 7732770.036 10 0 60323 78300.00000 0 18338901.936 -17090210.800 4634564.040 10 0 60323 79200.00000 0 18531427.303 -17445376.745 1446157.221 10 0 60323 80100.00000 0 18412919.597 -17540464.063 -1770397.692 10 0 60323 81000.00000 0 18021974.136 -17335674.163 -4952493.233 10 0 60323 81900.00000 0 17405901.674 -16801425.860 -8038195.178 10 0 60323 82800.00000 0 16618569.415 -15919806.677 -10967456.968 10 0 60323 83700.00000 0 15717981.733 -14685543.612 -13683295.881 10 0 60323 84600.00000 0 14763704.037 -13106451.474 -16132907.201 10 0 60323 85500.00000 0 13814239.717 -11203339.198 -18268694.032 10 0 60324 0.00000 0 12924471.761 -9009377.803 -20049192.379 10 0 60324 900.00000 0 12143277.022 -6568954.963 -21439874.480 10 0 60324 1800.00000 0 11511414.972 -3936066.959 -22413812.878 10 0 60324 2700.00000 0 11059778.001 -1172311.129 -22952196.244 10 0 60324 3600.00000 0 10808077.507 1655434.824 -23044685.297 10 0 60324 4500.00000 0 10764019.716 4477551.471 -22689603.853 10 0 60324 5400.00000 0 10923004.984 7224329.024 -21893962.001 10 0 60324 6300.00000 0 11268362.236 9828622.013 -20673311.675 10 0 60324 7200.00000 0 11772107.773 12228397.893 -19051437.986 10 0 60324 8100.00000 0 12396195.805 14369074.913 -17059892.651 10 0 60324 9000.00000 0 13094207.572 16205553.371 -14737378.652 10 0 60324 9900.00000 0 13813407.693 17703857.146 -12128998.074 10 0 60324 10800.00000 0 14497081.054 18842318.647 -9285377.499 10 0 60324 11700.00000 0 15087051.878 19612259.202 -6261687.686 10 0 60324 12600.00000 0 15526278.968 20018137.844 -3116576.293 10 0 60324 13500.00000 0 15761417.926 20077163.552 88965.923 10 0 60324 14400.00000 0 15745242.462 19818388.247 3292783.696 10 0 60324 15300.00000 0 15438822.764 19281319.456 6432757.974 10 0 60324 16200.00000 0 14813368.979 18514111.507 9448005.692 10 0 60324 17100.00000 0 13851661.806 17571411.603 12280055.621 10 0 60324 18000.00000 0 12549009.396 16511951.441 14873977.694 10 0 60324 18900.00000 0 10913689.428 15395985.544 17179444.287 10 0 60324 19800.00000 0 8966856.638 14282683.717 19151703.241 10 0 60324 20700.00000 0 6741918.223 13227586.903 20752444.130 10 0 60324 21600.00000 0 4283401.638 12280232.911 21950541.366 10 0 60324 22500.00000 0 1645360.231 11482051.429 22722660.011 10 0 60324 23400.00000 0 -1110618.571 10864616.464 23053712.681 10 0 60324 24300.00000 0 -3917721.408 10448329.531 22937158.631 10 0 60324 25200.00000 0 -6706439.044 10241589.014 22375138.905 10 0 60324 26100.00000 0 -9407214.552 10240480.910 21378444.390 10 0 60324 27000.00000 0 -11953100.604 10429004.452 19966316.630 10 0 60324 27900.00000 0 -14282316.164 10779823.730 18166084.314 10 0 60324 28800.00000 0 -16340596.574 11255514.263 16012641.526 10 0 60324 29700.00000 0 -18083239.291 11810252.533 13547776.920 10 0 60324 30600.00000 0 -19476759.873 12391877.535 10819366.057 10 0 60324 31500.00000 0 -20500088.840 12944237.328 7880442.074 10 0 60324 32400.00000 0 -21145259.162 13409721.117 4788162.570 10 0 60324 33300.00000 0 -21417555.568 13731869.133 1602692.956 10 0 60324 34200.00000 0 -21335119.601 13857948.875 -1613971.419 10 0 60324 35100.00000 0 -20928027.527 13741387.480 -4799220.593 10 0 60324 36000.00000 0 -20236880.737 13343955.890 -7891058.092 10 0 60324 36900.00000 0 -19310969.059 12637611.071 -10829316.665 10 0 60324 37800.00000 0 -18206085.652 11605917.083 -13556836.973 10 0 60324 38700.00000 0 -16982086.849 10244983.878 -16020585.346 10 0 60324 39600.00000 0 -15700300.993 8563883.319 -18172688.236 10 0 60324 40500.00000 0 -14420896.407 6584524.212 -19971362.975 10 0 60324 41400.00000 0 -13200319.934 4340991.074 -21381726.844 10 0 60324 42300.00000 0 -12088914.045 1878373.995 -22376469.112 10 0 60324 43200.00000 0 -11128812.533 -748861.757 -22936373.712 10 0 60324 44100.00000 0 -10352202.547 -3478898.615 -23050683.230 10 0 60324 45000.00000 0 -9780025.068 -6244898.111 -22717298.060 10 0 60324 45900.00000 0 -9421167.161 -8977544.219 -21942807.759 10 0 60324 46800.00000 0 -9272178.635 -11607693.547 -20742354.689 10 0 60324 47700.00000 0 -9317523.688 -14069022.985 -19139333.210 10 0 60324 48600.00000 0 -9530355.788 -16300565.746 -17164930.568 10 0 60324 49500.00000 0 -9873782.206 -18249031.510 -14857518.528 10 0 60324 50400.00000 0 -10302564.238 -19870815.280 -12261907.530 10 0 60324 51300.00000 0 -10765181.025 -21133612.597 -9428477.652 10 0 60324 52200.00000 0 -11206169.752 -22017574.988 -6412202.992 10 0 60324 53100.00000 0 -11568643.428 -22515958.641 -3271588.128 10 0 60324 54000.00000 0 -11796880.077 -22635240.253 -67537.042 10 0 60324 54900.00000 0 -11838874.144 -22394696.220 3137823.849 10 0 60324 55800.00000 0 -11648742.451 -21825463.536 6282345.874 10 0 60324 56700.00000 0 -11188883.121 -20969122.393 9305058.468 10 0 60324 57600.00000 0 -10431796.175 -19875860.287 12147346.677 10 0 60324 58500.00000 0 -9361488.572 -18602294.825 14754083.219 10 0 60324 59400.00000 0 -7974403.815 -17209046.526 17074693.488 10 0 60324 60300.00000 0 -6279835.948 -15758163.194 19064133.232 10 0 60324 61200.00000 0 -4299809.233 -14310503.512 20683760.354 10 0 60324 62100.00000 0 -2068426.920 -12923189.092 21902084.292 10 0 60324 63000.00000 0 369285.518 -11647231.252 22695378.776 10 0 60324 63900.00000 0 2958996.269 -10525431.543 23048146.202 10 0 60324 64800.00000 0 5639076.775 -9590643.643 22953424.584 10 0 60324 65700.00000 0 8342923.187 -8864469.227 22412930.829 10 0 60324 66600.00000 0 11001494.630 -8356442.482 21437037.039 10 0 60324 67500.00000 0 13545964.003 -8063737.576 20044579.485 10 0 60324 68400.00000 0 15910371.949 -7971411.611 18262503.075 10 0 60324 69300.00000 0 18034174.015 -8053173.129 16125347.186 10 0 60324 70200.00000 0 19864575.036 -8272644.082 13674581.896 10 0 60324 71100.00000 0 21358553.249 -8585062.213 10957806.678 10 0 60324 72000.00000 0 22484489.201 -8939351.900 8027826.618 10 0 60324 72900.00000 0 23223330.925 -9280475.630 4941623.886 10 0 60324 73800.00000 0 23569246.220 -9551965.956 1759244.635 10 0 60324 74700.00000 0 23529734.514 -9698529.821 -1457376.459 10 0 60324 75600.00000 0 23125193.729 -9668613.751 -4645630.301 10 0 60324 76500.00000 0 22387960.818 -9416819.909 -7743461.453 10 0 60324 77400.00000 0 21360867.088 -8906069.317 -10690585.098 10 0 60324 78300.00000 0 20095370.137 -8109419.290 -13429668.109 10 0 60324 79200.00000 0 18649342.148 -7011457.051 -15907450.358 10 0 60324 80100.00000 0 17084608.789 -5609209.594 -18075783.746 10 0 60324 81000.00000 0 15464343.235 -3912530.628 -19892568.487 10 0 60324 81900.00000 0 13850425.555 -1943947.634 -21322568.494 10 0 60324 82800.00000 0 12300878.774 262025.019 -22338090.431 10 0 60324 83700.00000 0 10867489.123 2660078.508 -22919513.891 10 0 60324 84600.00000 0 9593709.727 5195758.057 -23055663.285 10 0 60324 85500.00000 0 8512934.750 7807499.043 -22744015.117 10 0 60325 0.00000 0 7647215.054 10428966.042 -21990737.593 10 0 60325 900.00000 0 7006467.346 12991599.411 -20810562.074 10 0 60325 1800.00000 0 6588209.444 15427260.598 -19226490.551 10 0 60325 2700.00000 0 6377829.711 17670871.610 -17269343.804 10 0 60325 3600.00000 0 6349379.087 19662936.252 -14977160.078 10 0 60325 4500.00000 0 6466850.729 21351840.544 -12394455.597 10 0 60325 5400.00000 0 6685892.567 22695837.299 -9571361.130 10 0 60325 6300.00000 0 6955879.956 23664633.137 -6562651.120 10 0 60325 7200.00000 0 7222260.621 24240512.642 -3426683.943 10 0 60325 8100.00000 0 7429072.757 24418953.629 -224273.622 10 0 60325 9000.00000 0 7521529.874 24208708.558 2982485.420 10 0 60325 9900.00000 0 7448563.217 23631349.343 6131417.917 10 0 60325 10800.00000 0 7165214.367 22720295.083 9161468.624 10 0 60325 11700.00000 0 6634776.851 21519363.753 12013881.417 10 0 60325 12600.00000 0 5830596.079 20080908.631 14633334.037 10 0 60325 13500.00000 0 4737451.183 18463617.418 16969006.800 10 0 60325 14400.00000 0 3352459.708 16730065.964 18975564.936 10 0 60325 15300.00000 0 1685465.922 14944128.560 20614035.914 10 0 60325 16200.00000 0 -241104.981 13168352.637 21852565.107 10 0 60325 17100.00000 0 -2392922.506 11461407.044 22667035.476 10 0 60325 18000.00000 0 -4724929.894 9875710.031 23041539.399 10 0 60325 18900.00000 0 -7182979.399 8455335.542 22968693.464 10 0 60325 19800.00000 0 -9705857.495 7234284.899 22449789.847 10 0 60325 20700.00000 0 -12227617.434 6235195.896 21494780.802 10 0 60325 21600.00000 0 -14680123.423 5468543.127 20122095.814 10 0 60325 22500.00000 0 -16995701.633 4932363.017 18358294.030 10 0 60325 23400.00000 0 -19109788.191 4612515.095 16237557.712 10 0 60325 24300.00000 0 -20963464.041 4483468.529 13801035.582 10 0 60325 25200.00000 0 -22505770.737 4509580.770 11096047.973 10 0 60325 26100.00000 0 -23695709.942 4646814.163 8175168.680 10 0 60325 27000.00000 0 -24503842.379 4844817.628 5095201.141 10 0 60325 27900.00000 0 -24913418.614 5049284.687 1916068.959 10 0 60325 28800.00000 0 -24920993.690 5204487.115 -1300357.063 10 0 60325 29700.00000 0 -24536499.534 5255875.681 -4491471.748 10 0 60325 30600.00000 0 -23782772.092 5152636.470 -7595163.577 10 0 60325 31500.00000 0 -22694553.452 4850093.037 -10551032.832 10 0 60325 32400.00000 0 -21317011.588 4311851.259 -13301575.031 10 0 60325 33300.00000 0 -19703840.844 3511594.830 -15793305.724 10 0 60325 34200.00000 0 -17915024.043 2434454.390 -17977804.045 10 0 60325 35100.00000 0 -16014351.160 1077891.572 -19812654.442 10 0 60325 36000.00000 0 -14066799.471 -547939.978 -21262268.352 10 0 60325 36900.00000 0 -12135885.515 -2420372.352 -22298570.190 10 0 60325 37800.00000 0 -10281099.873 -4504932.844 -22901535.048 10 0 60325 38700.00000 0 -8555531.722 -6756555.800 -23059568.494 10 0 60325 39600.00000 0 -7003781.790 -9121246.489 -22769721.979 10 0 60325 40500.00000 0 -5660249.725 -11538127.951 -22037740.613 10 0 60325 41400.00000 0 -4547865.998 -13941785.918 -20877943.091 10 0 60325 42300.00000 0 -3677319.705 -16264814.635 -19312936.700 10 0 60325 43200.00000 0 -3046812.771 -18440458.223 -17373173.292 10 0 60325 44100.00000 0 -2642349.134 -20405238.288 -15096354.982 10 0 60325 45000.00000 0 -2438545.196 -22101459.065 -12526701.101 10 0 60325 45900.00000 0 -2399926.106 -23479486.517 -9714090.435 10 0 60325 46800.00000 0 -2482652.295 -24499707.068 -6713095.161 10 0 60325 47700.00000 0 -2636602.717 -25134084.966 -3581924.963 10 0 60325 48600.00000 0 -2807726.445 -25367253.868 -381301.550 10 0 60325 49500.00000 0 -2940563.056 -25197097.571 2826714.858 10 0 60325 50400.00000 0 -2980825.225 -24634796.052 5979924.476 10 0 60325 51300.00000 0 -2877934.356 -23704335.193 9017189.327 10 0 60325 52200.00000 0 -2587402.070 -22441500.859 11879613.948 10 0 60325 53100.00000 0 -2072956.805 -20892399.411 14511682.818 10 0 60325 54000.00000 0 -1308325.467 -19111566.377 16862332.733 10 0 60325 54900.00000 0 -278594.391 -17159742.001 18885939.794 10 0 60325 55800.00000 0 1018908.547 -15101406.149 20543202.202 10 0 60325 56700.00000 0 2574249.001 -13002174.907 21801902.177 10 0 60325 57600.00000 0 4365055.249 -10926166.843 22637532.551 10 0 60325 58500.00000 0 6357216.010 -8933448.111 23033776.029 10 0 60325 59400.00000 0 8506079.706 -7077662.312 22982827.825 10 0 60325 60300.00000 0 10758107.057 -5403943.305 22485555.139 10 0 60325 61200.00000 0 13052909.857 -3947197.661 21551489.872 10 0 60325 62100.00000 0 15325592.509 -2730828.034 20198653.941 10 0 60325 63000.00000 0 17509299.951 -1765950.589 18453219.687 10 0 60325 63900.00000 0 19537866.484 -1051139.064 16349010.949 10 0 60325 64800.00000 0 21348455.346 -572705.997 13926853.501 10 0 60325 65700.00000 0 22884078.691 -305509.109 11233786.638 10 0 60325 66600.00000 0 24095892.101 -214248.561 8322150.661 10 0 60325 67500.00000 0 24945166.869 -255199.859 5248567.746 10 0 60325 68400.00000 0 25404856.528 -378308.491 2072836.142 10 0 60325 69300.00000 0 25460691.029 -529556.741 -1143240.253 10 0 60325 70200.00000 0 25111751.980 -653501.284 -4337063.343 10 0 60325 71100.00000 0 24370504.339 -695872.730 -7446468.718 10 0 60325 72000.00000 0 23262283.168 -606125.540 -10410944.841 10 0 60325 72900.00000 0 21824257.299 -339828.860 -13172818.755 10 0 60325 73800.00000 0 20103913.996 139204.249 -15678384.271 10 0 60325 74700.00000 0 18157129.020 857140.434 -17878949.997 10 0 60325 75600.00000 0 16045903.887 1828778.474 -19731786.499 10 0 60325 76500.00000 0 13835865.878 3056688.114 -21200954.240 10 0 60325 77400.00000 0 11593636.045 4530872.059 -22257996.533 10 0 60325 78300.00000 0 9384175.448 6228965.743 -22882484.739 10 0 60325 79200.00000 0 7268220.315 8116966.770 -23062405.953 10 0 60325 80100.00000 0 5299912.596 10150463.723 -22794386.556 10 0 60325 81000.00000 0 3524723.717 12276313.212 -22083748.196 10 0 60325 81900.00000 0 1977756.755 14434695.463 -20944395.885 10 0 60325 82800.00000 0 682496.235 16561463.030 -19398540.935 10 0 60325 83700.00000 0 -349944.109 18590685.146 -17476264.549 10 0 60325 84600.00000 0 -1121046.066 20457282.172 -15214930.609 10 0 60325 85500.00000 0 -1644576.573 22099640.811 -12658459.101 10 0 60326 0.00000 0 -1945756.923 23462101.480 -9856474.350 10 0 60326 900.00000 0 -2059947.982 24497215.244 -6863342.792 10 0 60326 1800.00000 0 -2030907.523 25167674.823 -3737122.523 10 0 60326 2700.00000 0 -1908694.431 25447841.802 -538439.726 10 0 60326 3600.00000 0 -1747308.293 25324804.669 2670682.797 10 0 60326 4500.00000 0 -1602164.534 24798924.445 5828023.876 10 0 60326 5400.00000 0 -1527511.847 23883845.006 8872365.766 10 0 60326 6300.00000 0 -1573901.086 22605967.675 11744676.414 10 0 60326 7200.00000 0 -1785812.599 21003411.840 14389249.500 10 0 60326 8100.00000 0 -2199542.313 19124504.731 16754780.486 10 0 60326 9000.00000 0 -2841436.111 17025862.916 18795358.207 10 0 60326 9900.00000 0 -3726547.457 14770145.020 20471353.159 10 0 60326 10800.00000 0 -4857775.684 12423568.619 21750185.657 10 0 60326 11700.00000 0 -6225522.352 10053294.008 22606959.319 10 0 60326 12600.00000 0 -7807881.613 7724782.975 23024947.745 10 0 60326 13500.00000 0 -9571358.290 5499241.758 22995924.961 10 0 60326 14400.00000 0 -11472085.512 3431253.855 22520332.962 10 0 60326 15300.00000 0 -13457492.748 1566700.694 21607282.591 10 0 60326 16200.00000 0 -15468356.250 -58943.735 20274387.008 10 0 60326 17100.00000 0 -17441147.615 -1421873.559 18547430.065 10 0 60326 18000.00000 0 -19310583.331 -2510714.606 16459874.995 10 0 60326 18900.00000 0 -21012269.254 -3326759.269 14052222.003 10 0 60326 19800.00000 0 -22485329.475 -3883663.063 11371226.349 10 0 60326 20700.00000 0 -23674909.094 -4206616.039 8468991.556 10 0 60326 21600.00000 0 -24534445.260 -4331024.445 5401955.074 10 0 60326 22500.00000 0 -25027610.241 -4300759.025 2229786.251 10 0 60326 23400.00000 0 -25129843.822 -4166044.872 -985781.455 10 0 60326 24300.00000 0 -24829409.678 -3981083.296 -4182160.490 10 0 60326 25200.00000 0 -24127930.485 -3801507.698 -7297136.861 10 0 60326 26100.00000 0 -23040378.772 -3681782.666 -10270090.339 10 0 60326 27000.00000 0 -21594523.732 -3672657.860 -13043182.371 10 0 60326 27900.00000 0 -19829857.383 -3818785.878 -15562487.607 10 0 60326 28800.00000 0 -17796045.600 -4156606.018 -17779046.330 10 0 60326 29700.00000 0 -15550969.542 -4712584.374 -19649816.960 10 0 60326 30600.00000 0 -13158440.097 -5501885.219 -21138510.185 10 0 60326 31500.00000 0 -10685681.462 -6527530.152 -22216288.812 10 0 60326 32400.00000 0 -8200689.224 -7780080.670 -22862320.437 10 0 60326 33300.00000 0 -5769573.067 -9237857.652 -23064173.037 10 0 60326 34200.00000 0 -3453994.475 -10867688.629 -22818046.698 10 0 60326 35100.00000 0 -1308805.255 -12626151.623 -22128837.884 10 0 60326 36000.00000 0 620015.974 -14461263.660 -21010035.770 10 0 60326 36900.00000 0 2297044.925 -16314543.547 -19483453.231 10 0 60326 37800.00000 0 3698642.142 -18123363.026 -17578798.095 10 0 60326 38700.00000 0 4813683.404 -19823488.451 -15333093.127 10 0 60326 39600.00000 0 5643761.460 -21351707.212 -12789955.998 10 0 60326 40500.00000 0 6202852.480 -22648429.592 -9998753.050 10 0 60326 41400.00000 0 6516462.869 -23660157.712 -7013643.040 10 0 60326 42300.00000 0 6620293.676 -24341718.658 -3892529.130 10 0 60326 43200.00000 0 6558479.880 -24658168.644 -695939.252 10 0 60326 44100.00000 0 6381479.567 -24586288.691 2514143.763 10 0 60326 45000.00000 0 6143702.505 -24115609.254 5675479.707 10 0 60326 45900.00000 0 5900978.518 -23248920.835 8726773.212 10 0 60326 46800.00000 0 5707972.677 -22002248.965 11608857.542 10 0 60326 47700.00000 0 5615656.465 -20404294.249 14265837.249 10 0 60326 48600.00000 0 5668941.703 -18495360.332 16646167.878 10 0 60326 49500.00000 0 5904577.180 -16325813.868 18703652.148 10 0 60326 50400.00000 0 6349396.927 -13954139.970 20398333.713 10 0 60326 51300.00000 0 7018994.434 -11444673.253 21697271.551 10 0 60326 52200.00000 0 7916879.416 -8865097.949 22575180.345 10 0 60326 53100.00000 0 9034153.634 -6283820.157 23014924.578 10 0 60326 54000.00000 0 10349720.795 -3767320.488 23007856.799 10 0 60326 54900.00000 0 11831023.287 -1377596.291 22553993.257 10 0 60326 55800.00000 0 13435276.537 830200.952 21662022.972 10 0 60326 56700.00000 0 15111150.942 2809835.374 20349149.378 10 0 60326 57600.00000 0 16800832.377 4525677.967 18640766.659 10 0 60326 58500.00000 0 18442376.113 5953949.093 16569976.078 10 0 60326 59400.00000 0 19972256.270 7083460.718 14176950.698 10 0 60326 60300.00000 0 21328004.186 7915827.568 11508159.949 10 0 60326 61200.00000 0 22450824.779 8465138.732 8615468.543 10 0 60326 62100.00000 0 23288080.420 8757104.008 5555126.938 10 0 60326 63000.00000 0 23795536.964 8827711.616 2386673.086 10 0 60326 63900.00000 0 23939276.329 8721454.831 -828232.676 10 0 60326 64800.00000 0 23697193.945 8489203.562 -4027016.128 10 0 60326 65700.00000 0 23060016.973 8185812.213 -7147416.515 10 0 60326 66600.00000 0 22031799.540 7867566.487 -10128707.670 10 0 60326 67500.00000 0 20629873.610 7589578.633 -12912888.035 10 0 60326 68400.00000 0 18884257.258 7403242.779 -15445815.468 10 0 60326 69300.00000 0 16836545.266 7353859.170 -17678264.016 10 0 60326 70200.00000 0 14538328.789 7478528.691 -19566881.770 10 0 60326 71100.00000 0 12049210.654 7804407.243 -21075031.169 10 0 60326 72000.00000 0 9434499.624 8347393.991 -22173495.777 10 0 60326 72900.00000 0 6762680.123 9111308.847 -22841040.410 10 0 60326 73800.00000 0 4102762.890 10087593.788 -23064814.623 10 0 60326 74700.00000 0 1521626.573 11255550.383 -22840592.563 10 0 60326 75600.00000 0 -918539.788 12583103.410 -22172845.492 10 0 60326 76500.00000 0 -3162588.077 14028058.438 -21074646.315 10 0 60326 77400.00000 0 -5164459.757 15539800.638 -19567408.585 10 0 60326 78300.00000 0 -6888848.231 17061363.784 -17680465.433 10 0 60326 79200.00000 0 -8312407.502 18531782.992 -15450496.761 10 0 60326 80100.00000 0 -9424458.581 19888632.972 -12920815.806 10 0 60326 81000.00000 0 -10227166.007 21070645.813 -10140528.765 10 0 60326 81900.00000 0 -10735178.862 22020298.983 -7163583.529 10 0 60326 82800.00000 0 -10974752.869 22686265.364 -4047725.733 10 0 60326 83700.00000 0 -10982391.767 23025622.837 -853382.107 10 0 60326 84600.00000 0 -10803066.109 23005730.869 2357507.467 10 0 60326 85500.00000 0 -10488085.234 22605695.395 5522686.713 99